TimeEDT,TemperatureF,Dew PointF,Humidity,Sea Level PressureIn,VisibilityMPH,Wind Direction,Wind SpeedMPH,Gust SpeedMPH,PrecipitationIn,Events,Conditions,WindDirDegrees,DateUTC
12:15 AM,28.4,19.4,69,29.65,10.0,North,-9999.0,-,N/A,,Overcast,0,2013-04-06 04:15:00
12:35 AM,28.4,19.4,69,29.65,10.0,North,-9999.0,-,N/A,,Overcast,0,2013-04-06 04:35:00
12:55 AM,28.4,17.6,64,29.65,10.0,North,-9999.0,-,N/A,,Overcast,0,2013-04-06 04:55:00
1:15 AM,28.4,17.6,64,29.66,10.0,North,-9999.0,-,N/A,,Overcast,0,2013-04-06 05:15:00
1:35 AM,28.4,17.6,64,29.66,10.0,North,-9999.0,-,N/A,,Overcast,0,2013-04-06 05:35:00
1:55 AM,28.4,17.6,64,29.66,10.0,North,-9999.0,-,N/A,,Overcast,0,2013-04-06 05:55:00
2:15 AM,28.4,17.6,64,29.66,10.0,North,-9999.0,-,N/A,,Overcast,0,2013-04-06 06:15:00
2:35 AM,28.4,15.8,59,29.67,10.0,North,-9999.0,-,N/A,,Overcast,0,2013-04-06 06:35:00
2:55 AM,26.6,15.8,64,29.67,10.0,North,-9999.0,-,N/A,,Overcast,0,2013-04-06 06:55:00
3:15 AM,26.6,14.0,59,29.68,10.0,North,-9999.0,-,N/A,,Overcast,0,2013-04-06 07:15:00
3:35 AM,26.6,12.2,55,29.69,10.0,North,-9999.0,-,N/A,,Overcast,0,2013-04-06 07:35:00
3:55 AM,24.8,12.2,59,29.70,10.0,North,-9999.0,-,N/A,,Mostly Cloudy,0,2013-04-06 07:55:00
4:15 AM,24.8,10.4,54,29.71,10.0,North,-9999.0,-,N/A,,Partly Cloudy,0,2013-04-06 08:15:00
4:35 AM,23.0,10.4,59,29.72,10.0,North,-9999.0,-,N/A,,Clear,0,2013-04-06 08:35:00
4:55 AM,21.2,8.6,58,29.73,10.0,North,-9999.0,-,N/A,,Clear,0,2013-04-06 08:55:00
5:15 AM,21.2,8.6,58,29.75,10.0,North,-9999.0,-,N/A,,Clear,0,2013-04-06 09:15:00
5:35 AM,21.2,6.8,54,29.75,10.0,North,-9999.0,-,N/A,,Clear,0,2013-04-06 09:35:00
5:55 AM,19.4,6.8,58,29.76,10.0,North,-9999.0,-,N/A,,Clear,0,2013-04-06 09:55:00
6:15 AM,19.4,6.8,58,29.78,10.0,North,-9999.0,-,N/A,,Clear,0,2013-04-06 10:15:00
6:35 AM,19.4,6.8,58,29.78,10.0,North,-9999.0,-,N/A,,Clear,0,2013-04-06 10:35:00
6:55 AM,19.4,6.8,58,29.80,10.0,North,-9999.0,-,N/A,,Clear,0,2013-04-06 10:55:00
7:35 AM,19.4,5.0,54,29.82,10.0,North,-9999.0,-,N/A,,Clear,0,2013-04-06 11:35:00
7:55 AM,19.4,6.8,58,29.83,10.0,North,-9999.0,-,N/A,,Clear,0,2013-04-06 11:55:00
8:15 AM,21.2,5.0,50,29.84,10.0,North,-9999.0,-,N/A,,Partly Cloudy,0,2013-04-06 12:15:00
8:35 AM,21.2,6.8,54,29.85,10.0,North,-9999.0,-,N/A,,Partly Cloudy,0,2013-04-06 12:35:00
8:55 AM,21.2,6.8,54,29.85,10.0,North,-9999.0,-,N/A,,Clear,0,2013-04-06 12:55:00
9:15 AM,21.2,3.2,46,29.86,10.0,North,-9999.0,-,N/A,,Partly Cloudy,0,2013-04-06 13:15:00
9:35 AM,23.0,3.2,43,29.86,10.0,North,-9999.0,-,N/A,,Clear,0,2013-04-06 13:35:00
9:55 AM,24.8,3.2,40,29.87,10.0,North,-9999.0,-,N/A,,Clear,0,2013-04-06 13:55:00
10:15 AM,24.8,3.2,40,29.88,10.0,North,-9999.0,-,N/A,,Clear,0,2013-04-06 14:15:00
10:35 AM,24.8,3.2,40,29.89,10.0,North,-9999.0,-,N/A,,Clear,0,2013-04-06 14:35:00
10:55 AM,26.6,3.2,37,29.90,10.0,North,-9999.0,-,N/A,,Clear,0,2013-04-06 14:55:00
11:15 AM,26.6,3.2,37,29.91,10.0,North,-9999.0,-,N/A,,Clear,0,2013-04-06 15:15:00
11:35 AM,26.6,1.4,34,29.91,10.0,North,-9999.0,-,N/A,,Clear,0,2013-04-06 15:35:00
11:55 AM,26.6,1.4,34,29.91,10.0,North,-9999.0,-,N/A,,Clear,0,2013-04-06 15:55:00
12:15 PM,28.4,1.4,31,29.92,10.0,North,-9999.0,-,N/A,,Clear,0,2013-04-06 16:15:00
12:35 PM,28.4,1.4,31,29.92,10.0,North,-9999.0,-,N/A,,Clear,0,2013-04-06 16:35:00
12:55 PM,28.4,1.4,31,29.92,10.0,North,-9999.0,-,N/A,,Clear,0,2013-04-06 16:55:00
1:15 PM,28.4,1.4,31,29.93,10.0,North,-9999.0,-,N/A,,Clear,0,2013-04-06 17:15:00
1:35 PM,28.4,3.2,34,29.94,10.0,North,-9999.0,-,N/A,,Clear,0,2013-04-06 17:35:00
1:55 PM,28.4,3.2,34,29.95,10.0,North,-9999.0,-,N/A,,Clear,0,2013-04-06 17:55:00
2:15 PM,28.4,1.4,31,29.95,10.0,North,-9999.0,-,N/A,,Clear,0,2013-04-06 18:15:00
2:55 PM,30.2,-0.4,27,29.97,10.0,North,-9999.0,-,N/A,,Clear,0,2013-04-06 18:55:00
3:15 PM,30.2,-0.4,27,29.98,10.0,North,-9999.0,-,N/A,,Clear,0,2013-04-06 19:15:00
3:35 PM,30.2,-0.4,27,29.98,10.0,North,-9999.0,-,N/A,,Clear,0,2013-04-06 19:35:00
3:55 PM,30.2,-0.4,27,29.99,10.0,North,-9999.0,-,N/A,,Clear,0,2013-04-06 19:55:00
4:15 PM,30.2,-0.4,27,29.99,10.0,North,-9999.0,-,N/A,,Clear,0,2013-04-06 20:15:00
4:35 PM,30.2,-0.4,27,30.00,10.0,North,-9999.0,-,N/A,,Clear,0,2013-04-06 20:35:00
4:55 PM,30.2,-2.2,25,30.01,10.0,North,-9999.0,-,N/A,,Clear,0,2013-04-06 20:55:00
5:15 PM,30.2,-2.2,25,30.03,10.0,North,-9999.0,-,N/A,,Clear,0,2013-04-06 21:15:00
5:35 PM,30.2,-2.2,25,30.03,10.0,North,-9999.0,-,N/A,,Clear,0,2013-04-06 21:35:00
5:55 PM,30.2,-0.4,27,30.04,10.0,North,-9999.0,-,N/A,,Clear,0,2013-04-06 21:55:00
6:15 PM,30.2,-0.4,27,30.05,10.0,North,-9999.0,-,N/A,,Clear,0,2013-04-06 22:15:00
6:35 PM,28.4,-0.4,29,30.06,10.0,North,-9999.0,-,N/A,,Clear,0,2013-04-06 22:35:00
7:15 PM,28.4,-0.4,29,30.08,10.0,North,-9999.0,-,N/A,,Clear,0,2013-04-06 23:15:00
7:35 PM,28.4,-0.4,29,30.09,10.0,North,-9999.0,-,N/A,,Clear,0,2013-04-06 23:35:00
7:55 PM,26.6,-0.4,31,30.11,10.0,North,-9999.0,-,N/A,,Clear,0,2013-04-06 23:55:00
8:15 PM,26.6,-0.4,31,30.12,10.0,North,-9999.0,-,N/A,,Clear,0,2013-04-07 00:15:00
8:35 PM,26.6,-0.4,31,30.13,10.0,North,-9999.0,-,N/A,,Clear,0,2013-04-07 00:35:00
8:55 PM,26.6,-0.4,31,30.14,10.0,North,-9999.0,-,N/A,,Clear,0,2013-04-07 00:55:00
9:15 PM,26.6,-0.4,31,30.15,10.0,North,-9999.0,-,N/A,,Clear,0,2013-04-07 01:15:00
9:35 PM,24.8,-0.4,34,30.16,10.0,North,-9999.0,-,N/A,,Clear,0,2013-04-07 01:35:00
9:55 PM,24.8,1.4,36,30.15,10.0,North,-9999.0,-,N/A,,Clear,0,2013-04-07 01:55:00
10:15 PM,24.8,-0.4,34,30.16,10.0,North,-9999.0,-,N/A,,Clear,0,2013-04-07 02:15:00
10:35 PM,24.8,1.4,36,30.17,10.0,North,-9999.0,-,N/A,,Clear,0,2013-04-07 02:35:00
10:55 PM,19.4,3.2,49,30.18,10.0,North,-9999.0,-,N/A,,Clear,0,2013-04-07 02:55:00
11:15 PM,21.2,3.2,46,30.19,10.0,North,-9999.0,-,N/A,,Clear,0,2013-04-07 03:15:00
11:35 PM,21.2,1.4,42,30.18,10.0,North,-9999.0,-,N/A,,Clear,0,2013-04-07 03:35:00
11:55 PM,19.4,5.0,54,30.19,10.0,North,-9999.0,-,N/A,,Clear,0,2013-04-07 03:55:00